Location: アルンシュタイン
(50.0000°N, 10.0000°E)
Time: 06:06:51
(UTC+01:00)

Envisat - Pass Details

Date: 23 October 2021
Orbit: 764 x 766 km, 98.2° (Epoch: 04 December)

Event Time Altitude Azimuth Distance (km) Brightness Sun altitude
Rises 05:14:22 0° 26° (NNE) 3,245 6.8 -26.3°
Reaches altitude 10° 05:17:24 10° 45° (NE) 2,313 6.2 -25.8°
Maximum altitude 05:20:54 18° 89° (E) 1,796 5.7 -25.3°
Drops below altitude 10° 05:24:22 10° 132° (SE) 2,300 5.9 -24.7°
Sets 05:27:22 0° 151° (SSE) 3,220 6.5 -24.3°
